Weather History for Gainesville, FL

Change the Weather History Date:

Thursday, January 19, 2012

  Actual Average Record
Temperature  
Mean Temperature 52 °F 54 °F  
Max Temperature 67 °F 66 °F 85 °F (1937)
Min Temperature 36 °F 42 °F 20 °F (1977)
Degree Days  
Heating Degree Days 13 11  
Month to date heating degree days 199 217  
Since 1 July heating degree days 472 674  
Cooling Degree Days 0 0  
Month to date cooling degree days 0 0  
Year to date cooling degree days 0 0  
Growing Degree Days 2 (Base 50)    
Moisture  
Dew Point 35 °F    
Average Humidity 53    
Maximum Humidity 86    
Minimum Humidity 20    
Precipitation  
Precipitation 0.00 in 0.11 in 2.83 in (1978)
Month to date precipitation 0.64 1.86  
Year to date precipitation 0.64 1.86  
Snow  
Snow 0.00 in 0.00 in 0.00 in ()
Month to date snowfall 0.0 0.0  
Since 1 July snowfall 0.0 0.0  
Snow Depth 0.00 in    
Sea Level Pressure  
Sea Level Pressure 30.15 in    
Wind  
Wind Speed 2 mph (North)    
Max Wind Speed 8 mph    
Max Gust Speed 13 mph    
Visibility 10 miles    
Events      
T = Trace of Precipitation, MM = Missing Value Source: NWS Daily Summary

Daily Weather History Graph

Daily Weather History Graph

Search for Another Location

Airport:

Trip Planner

Search our weather history database for the weather conditions in past years. The results will help you decide how hot, cold, wet, or windy it might be!

Date:

Astronomy

Jan. 19, 2012 Rise Set
Actual Time 7:24 AM EST 5:55 PM EST
Civil Twilight 6:58 AM EST 6:20 PM EST
Nautical Twilight 6:29 AM EST 6:49 PM EST
Astronomical Twilight 6:01 AM EST 7:18 PM EST
Moon 3:55 AM EST (1/19) 2:30 PM EST (1/19)
Length of Visible Light 11h 22m
Length of Day
10h 30m
Waning Crescent, 16% of the Moon is Illuminated
Jan 19
Waning Crescent
Jan 23
New
Jan 30
First Quarter
Feb 7
Full
Feb 14
Last Quarter

Hourly Weather History & Observations

Time (EST) Temp. Windchill Dew Point Humidity Pressure Visibility Wind Dir Wind Speed Gust Speed Precip Events Conditions
12:53 AM 48.9 °F - 44.1 °F 83% 30.09 in 10.0 mi NW 4.6 mph - N/A   Clear
1:53 AM 48.0 °F - 43.0 °F 83% 30.07 in 10.0 mi NNW 5.8 mph - N/A   Clear
2:53 AM 45.0 °F 40.6 °F 39.9 °F 82% 30.08 in 10.0 mi NNW 8.1 mph - N/A   Clear
3:53 AM 45.0 °F 41.8 °F 39.0 °F 80% 30.09 in 10.0 mi NNW 5.8 mph - N/A   Clear
4:53 AM 43.0 °F - 37.0 °F 80% 30.11 in 10.0 mi Calm Calm - N/A   Clear
5:53 AM 42.1 °F - 36.0 °F 79% 30.14 in 10.0 mi Calm Calm - N/A   Clear
6:53 AM 39.0 °F - 34.0 °F 82% 30.15 in 9.0 mi Calm Calm - N/A   Clear
7:53 AM 37.9 °F - 34.0 °F 86% 30.17 in 4.0 mi Calm Calm - N/A   Clear
8:53 AM 46.0 °F 43.9 °F 37.0 °F 71% 30.20 in 10.0 mi NE 4.6 mph - N/A   Clear
9:53 AM 50.0 °F - 36.0 °F 59% 30.23 in 10.0 mi NE 6.9 mph - N/A   Clear
10:53 AM 55.9 °F - 34.0 °F 44% 30.23 in 10.0 mi NE 4.6 mph - N/A   Clear
11:53 AM 57.9 °F - 36.0 °F 44% 30.20 in 10.0 mi Calm Calm - N/A   Clear
12:53 PM 62.1 °F - 28.0 °F 28% 30.16 in 10.0 mi Calm Calm - N/A   Clear
1:53 PM 63.0 °F - 30.0 °F 29% 30.13 in 10.0 mi Calm Calm - N/A   Clear
2:53 PM 64.9 °F - 27.0 °F 24% 30.12 in 10.0 mi SSW 4.6 mph - N/A   Clear
3:53 PM 66.0 °F - 26.1 °F 22% 30.12 in 10.0 mi Calm Calm - N/A   Clear
4:53 PM 66.0 °F - 25.0 °F 21% 30.12 in 10.0 mi Variable 3.5 mph - N/A   Clear
5:53 PM 57.0 °F - 37.0 °F 47% 30.14 in 10.0 mi Calm Calm - N/A   Clear
6:53 PM 51.1 °F - 36.0 °F 56% 30.15 in 10.0 mi Calm Calm - N/A   Clear
7:53 PM 46.9 °F - 37.0 °F 68% 30.16 in 10.0 mi Calm Calm - N/A   Clear
8:53 PM 45.0 °F - 36.0 °F 71% 30.17 in 10.0 mi Calm Calm - N/A   Clear
9:53 PM 42.1 °F - 36.0 °F 79% 30.16 in 10.0 mi Calm Calm - N/A   Clear
10:53 PM 43.0 °F - 37.0 °F 80% 30.17 in 10.0 mi Calm Calm - N/A   Clear
11:53 PM 42.1 °F - 36.0 °F 79% 30.17 in 10.0 mi Calm Calm - N/A   Clear